Date String (YYYY-MM-DD hh:mm:ss) UTC,Instrument flags,Ambient pressure (hPa),Sample flow (lpm),Bypass flow (lpm),Sample temperature (°C),Ambient temperature (°C),ASC tube jacket temperature (°C),LED temperature (°C),Box temperature (°C),Sample RH (%),Span deviation,Mass concentration (μg/m³),Mass concentration (μg/m³),Mass concentration (μg/m³)
DateTimeUTC,F1_M11,P_M11,Q1_M11,Q2_M11,T1_M11,T2_M11,T3_M11,T4_M11,T5_M11,U1_M11,ZSPAN_M11,X0_M11,X2_M11,X1_M11
2022-09-30 08:00:00,,0827.1,5.00,0.00,30.5,29.2,00.0,39.3,32.4,16.7,0000.0,0008.87,0003.68,0003.29
2022-09-30 08:01:00,,0827.2,5.01,0.00,30.6,29.2,00.0,39.3,32.4,16.7,0000.0,0008.76,0003.68,0003.30
2022-09-30 08:02:00,,0827.2,4.99,0.00,30.6,29.2,00.0,39.3,32.4,16.7,0000.0,0009.16,0003.72,0003.31
2022-09-30 08:03:00,,0827.2,5.01,0.00,30.6,29.2,00.0,39.3,32.4,16.7,0000.0,0009.85,0003.74,0003.30
2022-09-30 08:04:00,,0827.2,5.01,0.00,30.6,29.2,00.0,39.3,32.4,16.6,0000.0,0008.94,0003.72,0003.30
2022-09-30 08:05:00,,0827.2,4.99,0.00,30.6,29.2,00.0,39.3,32.4,16.6,0000.0,0008.90,0003.72,0003.29
2022-09-30 08:06:00,,0827.2,5.01,0.00,30.6,29.2,00.0,39.3,32.4,16.6,0000.0,0008.70,0003.72,0003.28
2022-09-30 08:07:00,,0827.2,5.01,0.00,30.6,29.3,00.0,39.3,32.4,16.6,0000.0,0008.29,0003.71,0003.27
2022-09-30 08:08:00,,0827.2,4.99,0.00,30.6,29.2,00.0,39.3,32.4,16.6,0000.0,0008.52,0003.68,0003.26
2022-09-30 08:09:00,,0827.2,5.01,0.00,30.6,29.2,00.0,39.4,32.4,16.5,0000.0,0008.38,0003.67,0003.27
2022-09-30 08:10:00,,0827.2,5.01,0.00,30.6,29.2,00.0,39.4,32.4,16.5,0000.0,0008.45,0003.68,0003.27
2022-09-30 08:11:00,,0827.1,4.99,0.00,30.6,29.2,00.0,39.4,32.4,16.5,0000.0,0008.73,0003.68,0003.27
2022-09-30 08:12:00,,0827.1,5.01,0.00,30.6,29.3,00.0,39.4,32.5,16.7,0000.0,0008.78,0003.67,0003.28
2022-09-30 08:13:00,,0827.1,5.00,0.00,30.6,29.3,00.0,39.4,32.5,16.5,0000.0,0008.56,0003.64,0003.27
2022-09-30 08:14:00,,0827.1,4.99,0.00,30.6,29.2,00.0,39.4,32.5,16.4,0000.0,0007.59,0003.63,0003.27
2022-09-30 08:15:00,,0827.1,5.00,0.00,30.6,29.3,00.0,39.4,32.5,16.3,0000.0,0007.62,0003.62,0003.26
2022-09-30 08:16:00,,0827.1,5.00,0.00,30.6,29.2,00.0,39.4,32.5,16.1,0000.0,0007.58,0003.61,0003.25
2022-09-30 08:17:00,,0827.1,4.99,0.00,30.7,29.2,00.0,39.4,32.5,16.0,0000.0,0007.93,0003.59,0003.24
2022-09-30 08:18:00,,0827.1,5.02,0.00,30.7,29.2,00.0,39.4,32.5,16.0,0000.0,0008.37,0003.58,0003.22
2022-09-30 08:19:00,,0827.1,4.99,0.00,30.7,29.2,00.0,39.4,32.5,16.0,0000.0,0007.94,0003.58,0003.20
2022-09-30 08:20:00,,0827.1,5.01,0.00,30.7,29.2,00.0,39.4,32.5,16.0,0000.0,0007.87,0003.54,0003.18
2022-09-30 08:21:00,,0827.2,5.01,0.00,30.7,29.2,00.0,39.4,32.5,16.0,0000.0,0007.82,0003.51,0003.17
2022-09-30 08:22:00,,0827.2,4.99,0.00,30.7,29.2,00.0,39.4,32.5,16.0,0000.0,0007.52,0003.48,0003.14
2022-09-30 08:23:00,,0827.5,5.00,0.00,30.7,29.2,00.0,39.4,32.5,16.0,0000.0,0007.30,0003.45,0003.11
2022-09-30 08:24:00,,0827.1,5.01,0.00,30.7,29.2,00.0,39.4,32.5,15.9,0000.0,0007.06,0003.42,0003.09
2022-09-30 08:25:00,,0827.0,4.99,0.00,30.7,29.2,00.0,39.4,32.5,15.9,0000.0,0007.12,0003.41,0003.05
2022-09-30 08:26:00,,0827.0,5.00,0.00,30.7,29.2,00.0,39.4,32.4,16.0,0000.0,0006.93,0003.40,0003.03
2022-09-30 08:27:00,,0827.0,5.01,0.00,30.7,29.2,00.0,39.4,32.4,15.9,0000.0,0006.92,0003.38,0003.01
2022-09-30 08:28:00,,0827.0,5.01,0.00,30.7,29.2,00.0,39.5,32.4,15.9,0000.0,0006.28,0003.39,0003.03
2022-09-30 08:29:00,,0826.9,4.99,0.00,30.7,29.2,00.0,39.4,32.5,16.0,0000.0,0005.52,0003.39,0003.05
2022-09-30 08:30:00,,0827.0,5.01,0.00,30.7,29.1,00.0,39.4,32.5,16.0,0000.0,0005.24,0003.38,0003.06
2022-09-30 08:31:00,,0827.1,5.00,0.00,30.7,29.2,00.0,39.4,32.5,15.9,0000.0,0005.41,0003.39,0003.06
2022-09-30 08:32:00,,0826.9,5.00,0.00,30.7,29.1,00.0,39.4,32.5,15.9,0000.0,0005.33,0003.39,0003.06
2022-09-30 08:33:00,,0826.9,4.99,0.00,30.7,29.1,00.0,39.5,32.5,15.9,0000.0,0005.32,0003.39,0003.06
2022-09-30 08:34:00,,0827.1,5.01,0.00,30.7,29.1,00.0,39.5,32.5,15.9,0000.0,0005.46,0003.39,0003.06
2022-09-30 08:35:00,,0827.0,5.00,0.00,30.7,29.1,00.0,39.4,32.4,16.1,0000.0,0005.40,0003.37,0003.05
2022-09-30 08:36:00,,0827.0,5.00,0.00,30.6,29.1,00.0,39.4,32.4,16.3,0000.0,0005.17,0003.34,0003.04
2022-09-30 08:37:00,,0827.0,4.99,0.00,30.6,29.1,00.0,39.4,32.4,16.0,0000.0,0005.13,0003.34,0003.04
2022-09-30 08:38:00,,0827.0,5.01,0.00,30.6,29.1,00.0,39.4,32.4,15.9,0000.0,0005.09,0003.34,0003.05
2022-09-30 08:39:00,,0826.9,5.00,0.00,30.6,29.1,00.0,39.4,32.4,15.8,0000.0,0005.65,0003.33,0003.05
2022-09-30 08:40:00,,0826.9,4.99,0.00,30.6,29.1,00.0,39.4,32.4,15.8,0000.0,0005.54,0003.30,0003.03
2022-09-30 08:41:00,,0826.9,5.00,0.00,30.6,29.1,00.0,39.4,32.4,15.7,0000.0,0005.33,0003.28,0003.00
2022-09-30 08:42:00,,0826.9,5.00,0.00,30.6,29.0,00.0,39.4,32.4,15.6,0000.0,0005.19,0003.27,0003.01
2022-09-30 08:43:00,,0826.8,5.01,0.00,30.6,29.0,00.0,39.4,32.4,15.6,0000.0,0005.24,0003.28,0003.00
2022-09-30 08:44:00,,0826.9,4.99,0.00,30.6,29.0,00.0,39.4,32.4,15.6,0000.0,0005.27,0003.27,0003.00
2022-09-30 08:45:00,,0827.2,5.00,0.00,30.6,29.0,00.0,39.4,32.4,15.6,0000.0,0005.53,0003.27,0003.00
2022-09-30 08:46:00,,0827.2,5.00,0.00,30.6,29.0,00.0,39.4,32.4,15.6,0000.0,0005.62,0003.26,0003.00
2022-09-30 08:47:00,,0827.1,5.00,0.00,30.6,29.0,00.0,39.4,32.4,15.8,0000.0,0005.60,0003.26,0002.99
2022-09-30 08:48:00,,0827.0,4.99,0.00,30.6,29.0,00.0,39.4,32.4,15.8,0000.0,0005.60,0003.25,0002.97
2022-09-30 08:49:00,,0827.2,5.00,0.00,30.6,29.0,00.0,39.4,32.4,15.8,0000.0,0005.69,0003.27,0002.96
2022-09-30 08:50:00,,0827.2,5.00,0.00,30.6,29.0,00.0,39.4,32.4,15.9,0000.0,0005.20,0003.29,0002.96
2022-09-30 08:51:00,,0826.9,5.00,0.00,30.6,29.0,00.0,39.4,32.4,15.8,0000.0,0005.01,0003.29,0002.96
2022-09-30 08:52:00,,0827.0,4.99,0.00,30.6,29.1,00.0,39.4,32.4,15.9,0000.0,0005.30,0003.31,0002.96
2022-09-30 08:53:00,,0826.9,5.00,0.00,30.6,29.1,00.0,39.4,32.4,15.8,0000.0,0005.24,0003.30,0002.95
2022-09-30 08:54:00,,0826.9,4.99,0.00,30.6,29.1,00.0,39.4,32.4,15.7,0000.0,0005.19,0003.29,0002.96
2022-09-30 08:55:00,,0826.8,5.01,0.00,30.6,29.1,00.0,39.4,32.4,15.7,0000.0,0005.18,0003.30,0002.97
2022-09-30 08:56:00,,0826.8,4.99,0.00,30.6,29.0,00.0,39.4,32.4,15.7,0000.0,0005.02,0003.31,0002.97
2022-09-30 08:57:00,,0826.8,5.00,0.00,30.6,29.0,00.0,39.4,32.4,15.7,0000.0,0004.88,0003.33,0002.97
2022-09-30 08:58:00,,0826.8,5.00,0.00,30.6,29.0,00.0,39.4,32.4,15.6,0000.0,0005.12,0003.37,0002.98
2022-09-30 08:59:00,,0826.8,4.99,0.00,30.6,29.0,00.0,39.4,32.4,15.7,0000.0,0005.39,0003.39,0003.00
